This is the latest recevied weather packets stored in our database for station/object IT9RID. If no packets are shown the sender has not sent any weather packets the latest 10 day(s).
| Time | Temp. | Humidity | Pressure | Rain* | Wind** | Luminosity | Snow |
|---|---|---|---|---|---|---|---|
| 1788029886 | 30.56° C | 44% | 1014.5 hPa | 0 mm | - | - | - |
| 1788029285 | 30° C | 46% | 1014.4 hPa | 0 mm | - | - | - |
| 1788028685 | 30.56° C | 49% | 1014.2 hPa | 0 mm | - | - | - |
| 1788028085 | 30.56° C | 49% | 1014.3 hPa | 0 mm | - | - | - |
| 1788027485 | 31.11° C | 50% | 1014.1 hPa | 0 mm | - | - | - |
| 1788026885 | 30.56° C | 49% | 1014.2 hPa | 0 mm | - | - | - |
| 1788026285 | 31.67° C | 54% | 1014 hPa | 0 mm | - | - | - |
| 1788025685 | 31.67° C | 54% | 1014.1 hPa | 0 mm | - | - | - |
| 1788025085 | 32.22° C | 58% | 1014.1 hPa | 0 mm | - | - | - |
| 1788024484 | 32.22° C | 62% | 1014 hPa | 0 mm | - | - | - |
| 1788023284 | 32.78° C | 63% | 1014.2 hPa | 0 mm | - | - | - |
| 1788022684 | 33.33° C | 62% | 1014.3 hPa | 0 mm | - | - | - |
| 1788022084 | 33.89° C | 61% | 1014 hPa | 0 mm | - | - | - |
| 1788021484 | 33.89° C | 60% | 1014.1 hPa | 0 mm | - | - | - |
| 1788020883 | 33.89° C | 60% | 1014.3 hPa | 0 mm | - | - | - |
| 1788020283 | 33.89° C | 60% | 1014.5 hPa | 0 mm | - | - | - |
| 1788019683 | 33.89° C | 59% | 1014.8 hPa | 0 mm | - | - | - |
| 1788019083 | 34.44° C | 58% | 1014.9 hPa | 0 mm | - | - | - |
| 1788018483 | 34.44° C | 58% | 1015.2 hPa | 0 mm | - | - | - |
| 1788017883 | 33.89° C | 59% | 1015.2 hPa | 0 mm | - | - | - |
| 1788017282 | 33.89° C | 60% | 1015.3 hPa | 0 mm | - | - | - |
| 1788016682 | 33.89° C | 62% | 1015.7 hPa | 0 mm | - | - | - |
| 1788016082 | 33.89° C | 60% | 1015.9 hPa | 0 mm | - | - | - |
| 1788015482 | 34.44° C | 57% | 1015.9 hPa | 0 mm | - | - | - |
| 1788014882 | 33.89° C | 58% | 1015.9 hPa | 0 mm | - | - | - |
* Rain latest hour (hover to see other rain measurements)
** Current wind speed in m/s (hover to see current wind gust speed)